Location: Toronto
(43.6672°N, 79.4170°W)
Time: 10:52:30
(UTC-05:00)

Daily predictions for brighter satellites

Satellite Brightness Start Highest point End
(mag) Time Altitude Azimuth Time Altitude Azimuth Time Altitude Azimuth
CENTAUR R/B 3.2 18:10:31 10° NW 18:18:23 84° NE 18:26:46 10° SE
Cosmos 2360 4.2 18:13:39 10° NNW 18:19:25 79° ENE 18:25:08 10° SSE
NOSS 2-2 (E) 3.5 18:25:50 10° SSW 18:29:51 71° SE 18:34:36 10° NE
Cosmos 44 Rocket 3.2 18:26:04 10° NNW 18:30:53 82° ENE 18:35:33 10° SE
SKYMED 2 3.6 18:26:38 10° NNE 18:31:01 85° ESE 18:35:20 10° SSW
Cosmos 1975 Rocket 3.0 18:26:42 10° N 18:31:02 73° E 18:35:20 10° SSE
SL-08 R/B 4.4 18:27:22 10° S 18:33:26 74° E 18:39:37 10° NNE
RESURS DK-1 4.2 18:31:13 10° WSW 18:34:57 32° NW 18:38:42 10° N
Cosmos 2322 Rocket 2.4 18:30:25 10° NNW 18:35:55 52° ENE 18:41:22 10° SE
Okean 1 4.2 18:32:50 10° NNE 18:36:26 29° ENE 18:40:00 10° SE
Cosmos 1340 4.1 18:36:51 10° NNE 18:39:34 18° ENE 18:42:16 10° ESE
Nadezhda 1 Rocket 3.9 18:37:36 10° N 18:43:42 70° E 18:49:44 10° SSE
Meteor 1-28 Rocket 3.3 18:40:18 10° N 18:44:07 84° WNW 18:47:55 10° SSW
Tiangong 2 1.1 18:45:34 10° W 18:48:38 69° S 18:50:56 16° ESE
Cosmos 1346 Rocket 3.7 18:45:14 10° NNW 18:49:05 52° W 18:52:52 10° S
Cosmos 1536 Rocket 4.1 18:45:35 10° N 18:49:45 37° ENE 18:53:54 10° SE
NOSS 2-2 (D) 3.5 18:45:46 10° SW 18:49:48 87° WNW 18:54:34 10° NE
Cosmos 1818 4.4 18:45:23 10° S 18:50:03 30° ESE 18:54:44 10° NE
Meteor 1-25 Rocket 4.2 18:45:43 10° S 18:51:14 67° E 18:56:52 10° NNE
Cosmos 2181 Rocket 4.5 18:46:00 10° N 18:51:42 36° ENE 18:57:26 10° SE
Cosmos 1833 Rocket 4.5 18:48:07 10° WSW 18:53:03 31° NW 18:58:01 10° N
Resurs 01 Rocket 2.2 18:49:21 10° SE 18:53:20 35° ENE 18:57:20 10° N
NOSS 5 (C) 4.5 18:49:57 10° SW 18:53:27 73° NW 18:56:31 10° NNE
DNEPR-1 R/B 3.5 18:49:16 10° NNW 18:53:32 57° NE 18:57:41 10° SE
COSMOS 2428 4.2 18:51:12 10° N 18:54:54 17° NE 18:56:56 15° ENE
Cosmos 44 3.1 18:55:18 10° NW 18:59:47 84° WSW 19:04:05 10° SSE
DELTA 2 R/B (1) 3.9 18:56:21 10° WSW 19:01:51 58° S 19:05:58 18° ESE
H-2A R/B 3.4 18:59:16 10° SE 19:02:35 32° ENE 19:05:56 10° N
FENGYUN 3A 3.7 18:58:13 10° SSE 19:03:30 58° ENE 19:08:49 10° N
NOSS 2-2 (C) 4.0 19:03:01 10° SW 19:07:03 61° NW 19:11:48 10° NNE
deb Kosmos-1763 4.0 19:04:21 10° S 19:08:07 68° ESE 19:11:54 10° NNE
Cosmos 1812 3.0 19:06:46 10° NNW 19:10:38 70° W 19:14:27 10° S
Cosmos 676 Rocket 4.1 19:10:56 10° S 19:15:54 49° ESE 19:20:55 10° NNE
Cosmos 407 Rocket 3.4 19:11:03 10° S 19:16:15 72° ESE 19:21:33 10° NNE
Cosmos 1709 Rocket 3.9 19:11:48 10° S 19:17:57 64° E 19:24:04 10° NNE
Resurs 1-3 3.6 19:16:39 10° SSE 19:20:56 56° ENE 19:25:16 10° N
Okean 2 Rocket 4.4 19:17:31 10° SSW 19:21:45 42° WNW 19:26:00 10° N
USA 186 4.3 19:25:49 11° NNE 19:25:49 11° NNE 19:25:56 10° NNE
Cosmos 1300 Rocket 3.7 19:21:11 10° SSE 19:25:23 47° E 19:29:40 10° NNE
ATLAS CENTAUR R/B 4.2 19:26:10 10° WNW 19:28:04 12° NW 19:29:55 10° N
Cosmos 2360 Rocket 2.3 19:23:57 10° NNW 19:29:31 54° ENE 19:32:44 25° SE
FREGAT/IRIS 4.5 19:26:55 10° SSW 19:29:44 33° W 19:32:36 10° NNW
SAR-Lupe-1 4.3 19:33:10 47° ENE 19:33:10 47° ENE 19:36:26 10° N
Cosmos 2219 Rocket 3.7 19:29:37 10° N 19:33:20 19° NE 19:33:20 19° NE
Cosmos 1602 3.6 19:30:51 10° S 19:34:39 63° E 19:38:31 10° NNE
SAR-Lupe-4 3.4 19:36:35 55° ESE 19:37:05 64° ENE 19:40:40 10° N
Cosmos 2151 Rocket 4.2 19:35:27 10° SSW 19:39:52 58° W 19:44:22 10° N
Cosmos 1190 Rocket 4.5 19:34:46 10° SSW 19:39:53 62° WNW 19:45:04 10° NNE
GEOS 3 Rocket 4.0 19:36:00 10° NNE 19:41:11 66° NW 19:46:24 10° SW
ALOS 2.9 19:38:09 10° S 19:42:44 58° W 19:47:22 10° NNW
TSX-5 4.4 19:42:54 10° SSW 19:44:47 32° S 19:44:47 32° S
Cosmos 1140 Rocket 3.4 19:42:03 10° S 19:47:03 57° ESE 19:49:24 30° NE
Cosmos 1238 Rocket 2.7 19:44:03 10° NNW 19:46:37 53° NNW 19:46:37 53° NNW
Cosmos 1833 4.1 19:41:42 10° SSW 19:47:21 66° ESE 19:51:45 17° NNE
Spot 1 3.7 19:49:08 52° SSE 19:50:03 79° ENE 19:54:10 10° NNW
Spot 2 Rocket 3.8 19:45:28 10° S 19:50:29 67° WSW 19:55:33 10° NNW
Cosmos 2333 Rocket 3.7 19:46:37 10° N 19:50:08 21° NE 19:50:08 21° NE
Okean 1 Rocket 2.9 19:47:46 10° S 19:52:14 71° E 19:56:43 10° NNE
Cosmos 1461 3.8 19:50:41 10° NW 19:54:31 44° WSW 19:56:31 24° S
Meteor 1-19 Rocket 4.2 19:50:19 10° NNW 19:55:59 84° W 20:01:43 10° S
SL-16 R/B 3.7 19:55:15 10° NW 20:00:22 36° WSW 20:05:28 10° S
Okean 1-7 Rocket 3.5 19:57:27 10° N 20:01:49 74° NE 20:01:49 74° NE
Helios 1A 3.0 20:02:05 61° S 20:02:45 79° WSW 20:06:57 10° NNW
Cosmos 1633 3.5 20:00:29 10° SSW 20:04:03 49° W 20:07:40 10° N
Cosmos 614 Rocket 4.3 19:59:04 10° S 20:02:46 45° SSE 20:02:46 45° SSE
Envisat 3.3 20:07:27 49° NE 20:07:27 49° NE 20:11:33 10° N
Cosmos 1954 Rocket 4.1 20:03:28 10° SSW 20:08:38 71° WNW 20:13:52 10° NNE
USA 229 DEB 4.0 20:02:36 10° NNW 20:09:27 47° NE 20:10:22 45° ENE
USA 229 4.1 20:02:42 10° NNW 20:09:33 47° NE 20:10:27 45° ENE
Cosmos 2322 Rocket 4.3 20:15:11 10° NW 20:19:34 24° WSW 20:23:57 10° SSW
ERS-1 Rocket 4.4 20:25:45 26° N 20:25:45 26° N 20:28:02 10° N
Tiangong 2 4.1 20:22:13 10° W 20:22:55 14° WSW 20:22:55 14° WSW
Meteor 1-23 Rocket 4.2 20:19:10 10° NNW 20:25:01 82° W 20:26:15 57° S
USA 215 4.5 20:23:42 25° NNE 20:25:26 28° N 20:30:49 10° NW
Cosmos 1025 Rocket 4.5 20:24:19 10° NNW 20:26:39 31° NNW 20:26:39 31° NNW
Cosmos 2322 4.1 20:23:32 10° NNW 20:29:10 60° WSW 20:30:39 45° SSW
Resurs 01 Rocket 3.9 20:26:21 10° SSW 20:29:53 23° W 20:33:25 10° NW
Cosmos 1818 4.5 20:28:12 10° WSW 20:33:25 46° NW 20:35:28 32° N
Meteor 2-4 Rocket 4.4 20:32:39 10° NNW 20:38:04 51° W 20:40:14 33° SSW
COSMOS 2428 3.0 20:34:17 10° NNW 20:39:00 63° NNW 20:39:00 63° NNW
Cosmos 2237 4.4 20:35:05 10° NNW 20:40:31 70° W 20:40:31 70° W
BREEZE-M DEB (TANK) 4.0 20:41:13 10° WNW 20:44:45 74° WSW 20:44:45 74° WSW
Cosmos 2237 Rocket 3.9 20:49:45 10° NNW 20:52:08 24° N 20:52:08 24° N
Cosmos 2360 Rocket 4.2 21:08:46 10° NW 21:13:05 23° W 21:14:35 21° WSW
Cosmos 2219 Rocket 3.8 21:12:31 10° NNW 21:15:05 28° NNW 21:15:05 28° NNW
Cosmos 2333 Rocket 4.2 21:30:03 10° NNW 21:32:10 24° NNW 21:32:10 24° NNW
